Simultaneous Nadir Overpasses (SNOs) Predictions

Prediction of SNOs between GOES-17 and METOP-B Satellite Orbit:

Table of predicted SNOs for the next 14.0 days since TLE Epoch: 7/24/2021
Index Date Time (GOES-17) GOES-17 Lat,Lon METOP-B Lat,Lon Distance(km) Time Diff (sec)
1 07/24/2021 18:43:38 0.01,-137.18 0.29,-138.53 152.92 80
2 07/25/2021 18:25:38 0.00,-137.17 -0.80,-133.53 415.21 80
3 07/27/2021 06:41:58 0.01,-137.15 -0.23,-138.12 111.54 80
4 07/28/2021 06:24:00 0.01,-137.14 0.93,-133.13 456.54 80
5 07/29/2021 18:40:12 -0.01,-137.13 0.10,-137.69 63.67 80
6 08/01/2021 06:38:33 0.01,-137.09 -0.03,-137.29 22.89 80
7 08/03/2021 18:39:26 0.01,-137.05 -0.05,-136.85 23.42 80
8 08/06/2021 06:35:07 -0.01,-136.99 0.13,-136.45 61.75 80
